Time,TemperatureF,DewpointF,PressureIn,WindDirection,WindDirectionDegrees,WindSpeedMPH,WindSpeedGustMPH,Humidity,HourlyPrecipIn,Conditions,Clouds,dailyrainin,SoftwareType,DateUTC
2013-02-13 00:01:00,44.9,38.5,30.24,NE,38,0.0,2.0,78,0.00,,,0.00,WeatherCatV1.13B119,2013-02-13 08:01:00,
2013-02-13 00:06:00,44.5,37.7,30.24,NE,37,0.0,0.0,77,0.00,,,0.00,WeatherCatV1.13B119,2013-02-13 08:06:00,
2013-02-13 00:11:00,44.3,37.6,30.24,NE,35,0.0,0.0,77,0.00,,,0.00,WeatherCatV1.13B119,2013-02-13 08:11:00,
2013-02-13 00:16:00,44.4,37.6,30.24,NE,35,0.0,0.0,77,0.00,,,0.00,WeatherCatV1.13B119,2013-02-13 08:16:00,
2013-02-13 00:21:00,44.5,38.1,30.24,NE,34,0.0,0.0,78,0.00,,,0.00,WeatherCatV1.13B119,2013-02-13 08:21:00,
2013-02-13 00:26:00,44.5,38.1,30.24,NE,34,0.0,0.0,78,0.00,,,0.00,WeatherCatV1.13B119,2013-02-13 08:26:00,
2013-02-13 00:31:00,44.6,38.2,30.24,NNW,337,0.0,0.0,78,0.00,,,0.00,WeatherCatV1.13B119,2013-02-13 08:31:00,
2013-02-13 00:36:00,44.6,38.2,30.24,NNE,28,0.0,0.0,78,0.00,,,0.00,WeatherCatV1.13B119,2013-02-13 08:36:00,
2013-02-13 00:41:00,44.5,37.4,30.24,NE,46,3.0,3.0,76,0.00,,,0.00,WeatherCatV1.13B119,2013-02-13 08:41:00,
2013-02-13 00:46:00,44.8,37.4,30.24,NNE,26,3.0,3.0,75,0.00,,,0.00,WeatherCatV1.13B119,2013-02-13 08:46:00,
2013-02-13 00:51:00,44.9,37.1,30.24,NNE,23,0.0,3.0,74,0.00,,,0.00,WeatherCatV1.13B119,2013-02-13 08:51:00,
2013-02-13 00:56:00,44.8,36.7,30.24,NNW,348,2.0,2.0,73,0.00,,,0.00,WeatherCatV1.13B119,2013-02-13 08:56:00,
2013-02-13 01:01:00,44.8,36.3,30.24,NNE,31,0.0,1.0,72,0.00,,,0.00,WeatherCatV1.13B119,2013-02-13 09:01:00,
2013-02-13 01:06:00,44.5,36.0,30.24,NNE,15,1.0,1.0,72,0.00,,,0.00,WeatherCatV1.13B119,2013-02-13 09:06:00,
2013-02-13 01:11:00,44.3,36.9,30.24,NNE,19,0.0,0.0,75,0.00,,,0.00,WeatherCatV1.13B119,2013-02-13 09:11:00,
2013-02-13 01:16:00,44.4,36.6,30.24,NE,34,2.0,4.0,74,0.00,,,0.00,WeatherCatV1.13B119,2013-02-13 09:16:00,
2013-02-13 01:21:00,45.1,38.7,30.24,NE,39,1.0,1.0,78,0.00,,,0.00,WeatherCatV1.13B119,2013-02-13 09:21:00,
2013-02-13 01:26:00,45.2,38.8,30.24,NE,38,0.0,1.0,78,0.00,,,0.00,WeatherCatV1.13B119,2013-02-13 09:26:00,
2013-02-13 01:31:00,45.3,38.9,30.24,NNE,32,0.0,0.0,78,0.00,,,0.00,WeatherCatV1.13B119,2013-02-13 09:31:00,
2013-02-13 01:36:00,45.3,38.9,30.24,NNE,33,0.0,0.0,78,0.00,,,0.00,WeatherCatV1.13B119,2013-02-13 09:36:00,
2013-02-13 01:41:00,45.2,38.4,30.24,North,351,0.0,0.0,77,0.00,,,0.00,WeatherCatV1.13B119,2013-02-13 09:41:00,
2013-02-13 01:46:00,44.9,38.5,30.24,North,350,0.0,0.0,78,0.00,,,0.00,WeatherCatV1.13B119,2013-02-13 09:46:00,
2013-02-13 01:51:00,44.5,37.7,30.24,North,355,0.0,0.0,77,0.00,,,0.00,WeatherCatV1.13B119,2013-02-13 09:51:00,
2013-02-13 01:56:00,44.5,38.1,30.24,NNW,345,0.0,0.0,78,0.00,,,0.00,WeatherCatV1.13B119,2013-02-13 09:56:00,
2013-02-13 02:01:00,44.8,37.7,30.24,NNW,345,0.0,0.0,76,0.00,,,0.00,WeatherCatV1.13B119,2013-02-13 10:01:00,
2013-02-13 02:06:00,44.9,37.8,30.24,NW,325,0.0,0.0,76,0.00,,,0.00,WeatherCatV1.13B119,2013-02-13 10:06:00,
2013-02-13 02:11:00,44.8,37.7,30.24,NW,325,0.0,0.0,76,0.00,,,0.00,WeatherCatV1.13B119,2013-02-13 10:11:00,
2013-02-13 02:16:00,44.8,38.0,30.24,NW,325,0.0,0.0,77,0.00,,,0.00,WeatherCatV1.13B119,2013-02-13 10:16:00,
2013-02-13 02:21:00,44.4,38.0,30.24,NW,325,0.0,0.0,78,0.00,,,0.00,WeatherCatV1.13B119,2013-02-13 10:21:00,
2013-02-13 02:26:00,43.9,37.5,30.24,NW,325,0.0,0.0,78,0.00,,,0.00,WeatherCatV1.13B119,2013-02-13 10:26:00,
2013-02-13 02:31:00,44.1,37.7,30.24,WSW,258,0.0,0.0,78,0.00,,,0.00,WeatherCatV1.13B119,2013-02-13 10:31:00,
2013-02-13 02:36:00,44.5,38.1,30.23,WSW,250,0.0,0.0,78,0.00,,,0.00,WeatherCatV1.13B119,2013-02-13 10:36:00,
2013-02-13 02:41:00,44.7,38.3,30.23,WSW,252,0.0,0.0,78,0.00,,,0.00,WeatherCatV1.13B119,2013-02-13 10:41:00,
2013-02-13 02:46:00,44.9,38.5,30.23,WSW,253,0.0,0.0,78,0.00,,,0.00,WeatherCatV1.13B119,2013-02-13 10:46:00,
2013-02-13 02:51:00,45.3,38.5,30.23,WSW,253,0.0,0.0,77,0.00,,,0.00,WeatherCatV1.13B119,2013-02-13 10:51:00,
2013-02-13 02:56:00,45.6,38.5,30.23,WSW,253,0.0,0.0,76,0.00,,,0.00,WeatherCatV1.13B119,2013-02-13 10:56:00,
2013-02-13 03:01:00,45.9,38.4,30.23,WSW,253,0.0,0.0,75,0.00,,,0.00,WeatherCatV1.13B119,2013-02-13 11:01:00,
2013-02-13 03:06:00,46.1,38.3,30.23,WSW,253,0.0,0.0,74,0.00,,,0.00,WeatherCatV1.13B119,2013-02-13 11:06:00,
2013-02-13 03:11:00,46.2,38.4,30.23,WSW,252,0.0,0.0,74,0.00,,,0.00,WeatherCatV1.13B119,2013-02-13 11:11:00,
2013-02-13 03:16:00,46.3,38.1,30.23,WSW,252,0.0,0.0,73,0.00,,,0.00,WeatherCatV1.13B119,2013-02-13 11:16:00,
2013-02-13 03:21:00,46.7,38.2,30.22,West,261,0.0,0.0,72,0.00,,,0.00,WeatherCatV1.13B119,2013-02-13 11:21:00,
2013-02-13 03:26:00,47.1,37.8,30.22,West,261,0.0,0.0,70,0.00,,,0.00,WeatherCatV1.13B119,2013-02-13 11:26:00,
2013-02-13 03:31:00,47.2,37.6,30.22,WSW,249,0.0,0.0,69,0.00,,,0.00,WeatherCatV1.13B119,2013-02-13 11:31:00,
2013-02-13 03:36:00,47.2,37.6,30.22,SW,233,0.0,0.0,69,0.00,,,0.00,WeatherCatV1.13B119,2013-02-13 11:36:00,
2013-02-13 03:41:00,47.1,37.5,30.22,SW,233,0.0,0.0,69,0.00,,,0.00,WeatherCatV1.13B119,2013-02-13 11:41:00,
2013-02-13 03:46:00,46.8,37.2,30.22,SW,234,0.0,0.0,69,0.00,,,0.00,WeatherCatV1.13B119,2013-02-13 11:46:00,
2013-02-13 03:51:00,46.7,37.1,30.22,SW,234,0.0,0.0,69,0.00,,,0.00,WeatherCatV1.13B119,2013-02-13 11:51:00,
2013-02-13 03:56:00,46.5,36.9,30.22,SW,234,0.0,0.0,69,0.00,,,0.00,WeatherCatV1.13B119,2013-02-13 11:56:00,
2013-02-13 04:01:00,47.0,37.0,30.22,WSW,248,0.0,0.0,68,0.00,,,0.00,WeatherCatV1.13B119,2013-02-13 12:01:00,
2013-02-13 04:06:00,47.0,36.6,30.22,WSW,248,0.0,0.0,67,0.00,,,0.00,WeatherCatV1.13B119,2013-02-13 12:06:00,
2013-02-13 04:11:00,46.8,36.4,30.23,WSW,248,0.0,0.0,67,0.00,,,0.00,WeatherCatV1.13B119,2013-02-13 12:11:00,
2013-02-13 04:16:00,46.7,36.7,30.22,WSW,248,0.0,0.0,68,0.00,,,0.00,WeatherCatV1.13B119,2013-02-13 12:16:00,
2013-02-13 04:21:00,47.1,36.3,30.23,WSW,249,0.0,0.0,66,0.00,,,0.00,WeatherCatV1.13B119,2013-02-13 12:21:00,
2013-02-13 04:26:00,47.4,36.6,30.23,WSW,238,0.0,0.0,66,0.00,,,0.00,WeatherCatV1.13B119,2013-02-13 12:26:00,
2013-02-13 04:31:00,47.3,36.5,30.23,West,267,0.0,0.0,66,0.00,,,0.00,WeatherCatV1.13B119,2013-02-13 12:31:00,
2013-02-13 04:36:00,47.3,36.5,30.23,West,260,0.0,0.0,66,0.00,,,0.00,WeatherCatV1.13B119,2013-02-13 12:36:00,
2013-02-13 04:41:00,47.1,36.3,30.23,West,260,0.0,0.0,66,0.00,,,0.00,WeatherCatV1.13B119,2013-02-13 12:41:00,
2013-02-13 04:46:00,47.0,36.2,30.23,West,259,0.0,0.0,66,0.00,,,0.00,WeatherCatV1.13B119,2013-02-13 12:46:00,
2013-02-13 04:51:00,46.6,36.2,30.23,SW,234,0.0,0.0,67,0.00,,,0.00,WeatherCatV1.13B119,2013-02-13 12:51:00,
2013-02-13 04:56:00,46.1,36.1,30.23,WSW,245,0.0,0.0,68,0.00,,,0.00,WeatherCatV1.13B119,2013-02-13 12:56:00,
2013-02-13 05:01:00,45.9,35.9,30.23,WSW,254,0.0,0.0,68,0.00,,,0.00,WeatherCatV1.13B119,2013-02-13 13:01:00,
2013-02-13 05:06:00,46.0,36.0,30.23,WSW,256,0.0,0.0,68,0.00,,,0.00,WeatherCatV1.13B119,2013-02-13 13:06:00,
2013-02-13 05:11:00,46.6,36.2,30.23,West,261,0.0,0.0,67,0.00,,,0.00,WeatherCatV1.13B119,2013-02-13 13:11:00,
2013-02-13 05:16:00,46.9,36.1,30.23,WSW,256,0.0,0.0,66,0.00,,,0.00,WeatherCatV1.13B119,2013-02-13 13:16:00,
2013-02-13 05:21:00,47.1,35.9,30.23,West,261,0.0,0.0,65,0.00,,,0.00,WeatherCatV1.13B119,2013-02-13 13:21:00,
2013-02-13 05:26:00,47.5,35.9,30.23,WSW,257,0.0,0.0,64,0.00,,,0.00,WeatherCatV1.13B119,2013-02-13 13:26:00,
2013-02-13 05:31:00,47.6,36.0,30.23,WSW,257,0.0,0.0,64,0.00,,,0.00,WeatherCatV1.13B119,2013-02-13 13:31:00,
2013-02-13 05:36:00,47.5,35.5,30.23,WSW,257,0.0,0.0,63,0.00,,,0.00,WeatherCatV1.13B119,2013-02-13 13:36:00,
2013-02-13 05:41:00,47.3,35.7,30.23,WSW,257,0.0,0.0,64,0.00,,,0.00,WeatherCatV1.13B119,2013-02-13 13:41:00,
2013-02-13 05:46:00,47.2,35.3,30.23,WSW,258,0.0,0.0,63,0.00,,,0.00,WeatherCatV1.13B119,2013-02-13 13:46:00,
2013-02-13 05:51:00,46.9,35.0,30.23,WSW,258,0.0,0.0,63,0.00,,,0.00,WeatherCatV1.13B119,2013-02-13 13:51:00,
2013-02-13 05:56:00,46.4,35.3,30.23,WSW,258,0.0,0.0,65,0.00,,,0.00,WeatherCatV1.13B119,2013-02-13 13:56:00,
2013-02-13 06:01:00,46.4,35.3,30.23,WSW,258,0.0,0.0,65,0.00,,,0.00,WeatherCatV1.13B119,2013-02-13 14:01:00,
2013-02-13 06:06:00,46.3,34.8,30.23,WSW,258,0.0,0.0,64,0.00,,,0.00,WeatherCatV1.13B119,2013-02-13 14:06:00,
2013-02-13 06:11:00,46.1,35.0,30.23,WSW,258,0.0,0.0,65,0.00,,,0.00,WeatherCatV1.13B119,2013-02-13 14:11:00,
2013-02-13 06:16:00,45.8,34.7,30.23,West,259,0.0,0.0,65,0.00,,,0.00,WeatherCatV1.13B119,2013-02-13 14:16:00,
2013-02-13 06:21:00,45.4,34.7,30.23,WSW,258,0.0,0.0,66,0.00,,,0.00,WeatherCatV1.13B119,2013-02-13 14:21:00,
2013-02-13 06:26:00,45.4,34.7,30.23,West,259,0.0,0.0,66,0.00,,,0.00,WeatherCatV1.13B119,2013-02-13 14:26:00,
2013-02-13 06:31:00,45.5,34.8,30.23,West,259,0.0,0.0,66,0.00,,,0.00,WeatherCatV1.13B119,2013-02-13 14:31:00,
2013-02-13 06:36:00,45.7,34.6,30.23,West,259,0.0,0.0,65,0.00,,,0.00,WeatherCatV1.13B119,2013-02-13 14:36:00,
2013-02-13 06:41:00,45.6,34.9,30.23,WSW,258,0.0,0.0,66,0.00,,,0.00,WeatherCatV1.13B119,2013-02-13 14:41:00,
2013-02-13 06:46:00,45.8,35.1,30.23,West,259,0.0,0.0,66,0.00,,,0.00,WeatherCatV1.13B119,2013-02-13 14:46:00,
2013-02-13 06:51:00,45.6,35.3,30.24,WSW,258,0.0,0.0,67,0.00,,,0.00,WeatherCatV1.13B119,2013-02-13 14:51:00,
2013-02-13 06:56:00,45.5,34.8,30.24,West,259,0.0,0.0,66,0.00,,,0.00,WeatherCatV1.13B119,2013-02-13 14:56:00,
2013-02-13 07:01:00,45.8,35.5,30.24,West,260,0.0,0.0,67,0.00,,,0.00,WeatherCatV1.13B119,2013-02-13 15:01:00,
2013-02-13 07:06:00,46.2,35.9,30.24,West,260,0.0,0.0,67,0.00,,,0.00,WeatherCatV1.13B119,2013-02-13 15:06:00,
2013-02-13 07:11:00,46.6,35.9,30.24,West,260,0.0,0.0,66,0.00,,,0.00,WeatherCatV1.13B119,2013-02-13 15:11:00,
2013-02-13 07:16:00,47.0,35.9,30.24,West,260,0.0,0.0,65,0.00,,,0.00,WeatherCatV1.13B119,2013-02-13 15:16:00,
2013-02-13 07:21:00,47.4,35.8,30.24,West,260,0.0,0.0,64,0.00,,,0.00,WeatherCatV1.13B119,2013-02-13 15:21:00,
2013-02-13 07:26:00,47.9,35.9,30.24,West,260,0.0,0.0,63,0.00,,,0.00,WeatherCatV1.13B119,2013-02-13 15:26:00,
2013-02-13 07:31:00,48.4,36.0,30.24,West,260,0.0,0.0,62,0.00,,,0.00,WeatherCatV1.13B119,2013-02-13 15:31:00,
2013-02-13 07:36:00,48.7,36.3,30.24,West,260,0.0,0.0,62,0.00,,,0.00,WeatherCatV1.13B119,2013-02-13 15:36:00,
2013-02-13 07:41:00,48.6,36.6,30.24,West,259,0.0,0.0,63,0.00,,,0.00,WeatherCatV1.13B119,2013-02-13 15:41:00,
2013-02-13 07:46:00,48.4,37.2,30.25,West,259,0.0,0.0,65,0.00,,,0.00,WeatherCatV1.13B119,2013-02-13 15:46:00,
2013-02-13 07:51:00,48.5,37.3,30.25,West,260,0.0,0.0,65,0.00,,,0.00,WeatherCatV1.13B119,2013-02-13 15:51:00,
2013-02-13 07:56:00,49.1,37.5,30.25,West,260,0.0,0.0,64,0.00,,,0.00,WeatherCatV1.13B119,2013-02-13 15:56:00,
2013-02-13 08:01:00,50.0,38.3,30.25,West,260,0.0,0.0,64,0.00,,,0.00,WeatherCatV1.13B119,2013-02-13 16:01:00,
2013-02-13 08:06:00,51.8,41.2,30.25,West,259,0.0,0.0,67,0.00,,,0.00,WeatherCatV1.13B119,2013-02-13 16:06:00,
2013-02-13 08:11:00,52.7,41.7,30.25,SSE,147,0.0,0.0,66,0.00,,,0.00,WeatherCatV1.13B119,2013-02-13 16:11:00,
2013-02-13 08:16:00,53.2,42.1,30.25,ESE,113,0.0,0.0,66,0.00,,,0.00,WeatherCatV1.13B119,2013-02-13 16:16:00,
2013-02-13 08:21:00,53.7,42.2,30.25,ESE,102,0.0,0.0,65,0.00,,,0.00,WeatherCatV1.13B119,2013-02-13 16:21:00,
2013-02-13 08:26:00,53.3,41.8,30.25,ESE,102,0.0,0.0,65,0.00,,,0.00,WeatherCatV1.13B119,2013-02-13 16:26:00,
2013-02-13 08:31:00,53.3,42.2,30.25,ESE,103,0.0,0.0,66,0.00,,,0.00,WeatherCatV1.13B119,2013-02-13 16:31:00,
2013-02-13 08:36:00,54.6,43.5,30.25,ESE,102,0.0,0.0,66,0.00,,,0.00,WeatherCatV1.13B119,2013-02-13 16:36:00,
2013-02-13 08:41:00,54.8,42.4,30.24,ESE,103,0.0,0.0,63,0.00,,,0.00,WeatherCatV1.13B119,2013-02-13 16:41:00,
2013-02-13 08:46:00,55.4,43.4,30.24,ESE,102,0.0,0.0,64,0.00,,,0.00,WeatherCatV1.13B119,2013-02-13 16:46:00,
2013-02-13 08:51:00,55.9,41.8,30.24,ESE,102,0.0,0.0,59,0.00,,,0.00,WeatherCatV1.13B119,2013-02-13 16:51:00,
2013-02-13 08:56:00,55.0,42.2,30.24,ESE,113,0.0,0.0,62,0.00,,,0.00,WeatherCatV1.13B119,2013-02-13 16:56:00,
2013-02-13 09:01:00,54.4,41.7,30.24,ESE,114,0.0,0.0,62,0.00,,,0.00,WeatherCatV1.13B119,2013-02-13 17:01:00,
2013-02-13 09:06:00,54.9,41.7,30.24,SE,144,0.0,0.0,61,0.00,,,0.00,WeatherCatV1.13B119,2013-02-13 17:06:00,
2013-02-13 09:11:00,55.3,40.8,30.24,SSE,152,0.0,0.0,58,0.00,,,0.00,WeatherCatV1.13B119,2013-02-13 17:11:00,
2013-02-13 09:16:00,56.4,42.7,30.24,SSE,149,0.0,0.0,60,0.00,,,0.00,WeatherCatV1.13B119,2013-02-13 17:16:00,
2013-02-13 09:21:00,56.3,43.9,30.24,SW,233,0.0,0.0,63,0.00,,,0.00,WeatherCatV1.13B119,2013-02-13 17:21:00,
2013-02-13 09:26:00,55.8,41.2,30.24,SW,227,0.0,0.0,58,0.00,,,0.00,WeatherCatV1.13B119,2013-02-13 17:26:00,
2013-02-13 09:31:00,55.5,41.8,30.25,SSE,153,2.0,2.0,60,0.00,,,0.00,WeatherCatV1.13B119,2013-02-13 17:31:00,
2013-02-13 09:36:00,55.9,41.8,30.25,SSW,193,0.0,0.0,59,0.00,,,0.00,WeatherCatV1.13B119,2013-02-13 17:36:00,
2013-02-13 09:41:00,56.1,41.1,30.24,SSW,211,0.0,0.0,57,0.00,,,0.00,WeatherCatV1.13B119,2013-02-13 17:41:00,
2013-02-13 09:46:00,56.5,40.1,30.24,SE,142,2.0,2.0,54,0.00,,,0.00,WeatherCatV1.13B119,2013-02-13 17:46:00,
2013-02-13 09:51:00,56.6,40.1,30.24,ESE,119,1.0,2.0,54,0.00,,,0.00,WeatherCatV1.13B119,2013-02-13 17:51:00,
2013-02-13 09:56:00,56.7,41.2,30.24,SSE,159,2.0,2.0,56,0.00,,,0.00,WeatherCatV1.13B119,2013-02-13 17:56:00,
2013-02-13 10:01:00,57.1,41.1,30.24,SSE,153,2.0,2.0,55,0.00,,,0.00,WeatherCatV1.13B119,2013-02-13 18:01:00,
2013-02-13 10:06:00,57.4,39.4,30.25,SE,129,1.0,2.0,51,0.00,,,0.00,WeatherCatV1.13B119,2013-02-13 18:06:00,
2013-02-13 10:11:00,57.5,40.5,30.25,South,180,1.0,3.0,53,0.00,,,0.00,WeatherCatV1.13B119,2013-02-13 18:11:00,
2013-02-13 10:16:00,57.5,40.0,30.25,SSE,155,2.0,2.0,52,0.00,,,0.00,WeatherCatV1.13B119,2013-02-13 18:16:00,
2013-02-13 10:21:00,57.6,43.4,30.25,NE,47,3.0,3.0,59,0.00,,,0.00,WeatherCatV1.13B119,2013-02-13 18:21:00,
2013-02-13 10:26:00,56.4,42.7,30.25,NE,51,3.0,6.0,60,0.00,,,0.00,WeatherCatV1.13B119,2013-02-13 18:26:00,
2013-02-13 10:31:00,55.7,43.3,30.25,NE,40,3.0,4.0,63,0.00,,,0.00,WeatherCatV1.13B119,2013-02-13 18:31:00,
2013-02-13 10:36:00,55.5,43.5,30.25,NE,42,4.0,4.0,64,0.00,,,0.00,WeatherCatV1.13B119,2013-02-13 18:36:00,
2013-02-13 10:41:00,55.7,43.7,30.25,NE,51,4.0,6.0,64,0.00,,,0.00,WeatherCatV1.13B119,2013-02-13 18:41:00,
2013-02-13 10:46:00,55.4,44.2,30.25,NE,42,0.0,5.0,66,0.00,,,0.00,WeatherCatV1.13B119,2013-02-13 18:46:00,
2013-02-13 10:51:00,56.0,44.0,30.25,NE,54,4.0,6.0,64,0.00,,,0.00,WeatherCatV1.13B119,2013-02-13 18:51:00,
2013-02-13 10:56:00,56.1,44.9,30.25,NE,53,1.0,4.0,66,0.00,,,0.00,WeatherCatV1.13B119,2013-02-13 18:56:00,
2013-02-13 11:01:00,56.2,44.6,30.25,NE,53,2.0,4.0,65,0.00,,,0.00,WeatherCatV1.13B119,2013-02-13 19:01:00,
2013-02-13 11:06:00,56.3,45.5,30.25,ENE,76,1.0,3.0,67,0.00,,,0.00,WeatherCatV1.13B119,2013-02-13 19:06:00,
2013-02-13 11:11:00,56.8,45.6,30.24,NNE,22,1.0,3.0,66,0.00,,,0.00,WeatherCatV1.13B119,2013-02-13 19:11:00,
2013-02-13 11:16:00,57.0,44.9,30.24,NNE,20,4.0,4.0,64,0.00,,,0.00,WeatherCatV1.13B119,2013-02-13 19:16:00,
2013-02-13 11:21:00,57.0,45.3,30.24,ENE,59,3.0,3.0,65,0.00,,,0.00,WeatherCatV1.13B119,2013-02-13 19:21:00,
2013-02-13 11:26:00,57.4,45.3,30.23,East,100,0.0,2.0,64,0.00,,,0.00,WeatherCatV1.13B119,2013-02-13 19:26:00,
2013-02-13 11:31:00,57.7,45.2,30.24,NE,38,2.0,5.0,63,0.00,,,0.00,WeatherCatV1.13B119,2013-02-13 19:31:00,
2013-02-13 11:36:00,57.9,46.6,30.23,ENE,67,3.0,3.0,66,0.00,,,0.00,WeatherCatV1.13B119,2013-02-13 19:36:00,
2013-02-13 11:41:00,58.1,45.1,30.23,ENE,57,4.0,6.0,62,0.00,,,0.00,WeatherCatV1.13B119,2013-02-13 19:41:00,
2013-02-13 11:46:00,58.0,44.6,30.23,NE,46,1.0,4.0,61,0.00,,,0.00,WeatherCatV1.13B119,2013-02-13 19:46:00,
2013-02-13 11:51:00,58.5,45.1,30.23,ENE,59,1.0,4.0,61,0.00,,,0.00,WeatherCatV1.13B119,2013-02-13 19:51:00,
2013-02-13 11:56:00,59.3,44.5,30.22,NE,47,0.0,2.0,58,0.00,,,0.00,WeatherCatV1.13B119,2013-02-13 19:56:00,
2013-02-13 12:01:00,59.9,44.2,30.22,ENE,58,1.0,3.0,56,0.00,,,0.00,WeatherCatV1.13B119,2013-02-13 20:01:00,
2013-02-13 12:06:00,60.0,42.8,30.22,East,86,1.0,3.0,53,0.00,,,0.00,WeatherCatV1.13B119,2013-02-13 20:06:00,
2013-02-13 12:11:00,60.3,42.6,30.22,East,96,2.0,3.0,52,0.00,,,0.00,WeatherCatV1.13B119,2013-02-13 20:11:00,
2013-02-13 12:16:00,60.1,42.4,30.21,SE,144,0.0,4.0,52,0.00,,,0.00,WeatherCatV1.13B119,2013-02-13 20:16:00,
2013-02-13 12:21:00,60.9,45.1,30.21,SSE,165,1.0,2.0,56,0.00,,,0.00,WeatherCatV1.13B119,2013-02-13 20:21:00,
2013-02-13 12:26:00,61.1,42.3,30.21,SW,234,4.0,4.0,50,0.00,,,0.00,WeatherCatV1.13B119,2013-02-13 20:26:00,
2013-02-13 12:31:00,61.1,42.3,30.21,WSW,244,4.0,4.0,50,0.00,,,0.00,WeatherCatV1.13B119,2013-02-13 20:31:00,
2013-02-13 12:36:00,61.1,42.3,30.21,East,97,2.0,4.0,50,0.00,,,0.00,WeatherCatV1.13B119,2013-02-13 20:36:00,
2013-02-13 12:41:00,61.2,44.4,30.21,NW,321,4.0,4.0,54,0.00,,,0.00,WeatherCatV1.13B119,2013-02-13 20:41:00,
2013-02-13 12:46:00,60.6,42.9,30.20,ESE,107,1.0,5.0,52,0.00,,,0.00,WeatherCatV1.13B119,2013-02-13 20:46:00,
2013-02-13 12:51:00,60.7,45.4,30.20,NE,42,2.0,4.0,57,0.00,,,0.00,WeatherCatV1.13B119,2013-02-13 20:51:00,
2013-02-13 12:56:00,60.8,45.0,30.20,ESE,119,0.0,0.0,56,0.00,,,0.00,WeatherCatV1.13B119,2013-02-13 20:56:00,
2013-02-13 13:01:00,61.0,45.2,30.20,West,261,0.0,3.0,56,0.00,,,0.00,WeatherCatV1.13B119,2013-02-13 21:01:00,
2013-02-13 13:06:00,61.3,46.4,30.20,NW,319,2.0,4.0,58,0.00,,,0.00,WeatherCatV1.13B119,2013-02-13 21:06:00,
2013-02-13 13:11:00,61.1,48.0,30.19,WNW,284,4.0,5.0,62,0.00,,,0.00,WeatherCatV1.13B119,2013-02-13 21:11:00,
2013-02-13 13:16:00,60.3,48.1,30.19,ESE,109,0.0,2.0,64,0.00,,,0.00,WeatherCatV1.13B119,2013-02-13 21:16:00,
2013-02-13 13:21:00,60.3,46.8,30.19,WSW,248,4.0,6.0,61,0.00,,,0.00,WeatherCatV1.13B119,2013-02-13 21:21:00,
2013-02-13 13:26:00,60.7,48.0,30.18,NE,40,2.0,2.0,63,0.00,,,0.00,WeatherCatV1.13B119,2013-02-13 21:26:00,
2013-02-13 13:31:00,60.8,46.8,30.18,SE,132,2.0,2.0,60,0.00,,,0.00,WeatherCatV1.13B119,2013-02-13 21:31:00,
2013-02-13 13:36:00,60.9,47.8,30.18,WSW,253,3.0,4.0,62,0.00,,,0.00,WeatherCatV1.13B119,2013-02-13 21:36:00,
2013-02-13 13:41:00,60.7,46.3,30.17,SW,222,1.0,6.0,59,0.00,,,0.00,WeatherCatV1.13B119,2013-02-13 21:41:00,
2013-02-13 13:46:00,60.7,46.7,30.17,North,11,3.0,3.0,60,0.00,,,0.00,WeatherCatV1.13B119,2013-02-13 21:46:00,
2013-02-13 13:51:00,60.4,46.9,30.17,WSW,252,1.0,2.0,61,0.00,,,0.00,WeatherCatV1.13B119,2013-02-13 21:51:00,
2013-02-13 13:56:00,60.9,46.0,30.17,East,98,1.0,2.0,58,0.00,,,0.00,WeatherCatV1.13B119,2013-02-13 21:56:00,
2013-02-13 14:01:00,60.9,46.5,30.17,NNE,28,0.0,3.0,59,0.00,,,0.00,WeatherCatV1.13B119,2013-02-13 22:01:00,
2013-02-13 14:06:00,60.8,45.0,30.17,West,273,1.0,2.0,56,0.00,,,0.00,WeatherCatV1.13B119,2013-02-13 22:06:00,
2013-02-13 14:11:00,60.6,45.7,30.17,ESE,105,1.0,3.0,58,0.00,,,0.00,WeatherCatV1.13B119,2013-02-13 22:11:00,
2013-02-13 14:16:00,60.2,44.4,30.16,ENE,66,3.0,4.0,56,0.00,,,0.00,WeatherCatV1.13B119,2013-02-13 22:16:00,
2013-02-13 14:21:00,60.3,47.2,30.16,WNW,298,1.0,3.0,62,0.00,,,0.00,WeatherCatV1.13B119,2013-02-13 22:21:00,
2013-02-13 14:26:00,60.5,45.6,30.16,ENE,58,7.0,7.0,58,0.00,,,0.00,WeatherCatV1.13B119,2013-02-13 22:26:00,
2013-02-13 14:31:00,59.8,45.4,30.16,ENE,65,2.0,5.0,59,0.00,,,0.00,WeatherCatV1.13B119,2013-02-13 22:31:00,
2013-02-13 14:36:00,60.2,46.3,30.16,ESE,111,2.0,2.0,60,0.00,,,0.00,WeatherCatV1.13B119,2013-02-13 22:36:00,
2013-02-13 14:41:00,60.4,45.6,30.16,NNE,30,1.0,4.0,58,0.00,,,0.00,WeatherCatV1.13B119,2013-02-13 22:41:00,
2013-02-13 14:46:00,60.3,45.5,30.16,East,88,2.0,3.0,58,0.00,,,0.00,WeatherCatV1.13B119,2013-02-13 22:46:00,
2013-02-13 14:51:00,60.6,46.2,30.16,NE,39,2.0,3.0,59,0.00,,,0.00,WeatherCatV1.13B119,2013-02-13 22:51:00,
2013-02-13 14:56:00,60.6,43.9,30.16,WNW,300,1.0,4.0,54,0.00,,,0.00,WeatherCatV1.13B119,2013-02-13 22:56:00,
2013-02-13 15:01:00,60.4,44.6,30.16,NE,42,3.0,3.0,56,0.00,,,0.00,WeatherCatV1.13B119,2013-02-13 23:01:00,
2013-02-13 15:06:00,60.5,45.2,30.15,WNW,286,2.0,3.0,57,0.00,,,0.00,WeatherCatV1.13B119,2013-02-13 23:06:00,
2013-02-13 15:11:00,60.5,46.1,30.15,WSW,242,1.0,2.0,59,0.00,,,0.00,WeatherCatV1.13B119,2013-02-13 23:11:00,
2013-02-13 15:16:00,60.9,44.6,30.15,NE,44,3.0,3.0,55,0.00,,,0.00,WeatherCatV1.13B119,2013-02-13 23:16:00,
2013-02-13 15:21:00,60.5,44.7,30.15,West,267,4.0,4.0,56,0.00,,,0.00,WeatherCatV1.13B119,2013-02-13 23:21:00,
2013-02-13 15:26:00,60.4,44.2,30.15,NE,34,1.0,4.0,55,0.00,,,0.00,WeatherCatV1.13B119,2013-02-13 23:26:00,
2013-02-13 15:31:00,60.4,43.2,30.15,SW,223,0.0,5.0,53,0.00,,,0.00,WeatherCatV1.13B119,2013-02-13 23:31:00,
2013-02-13 15:36:00,60.6,43.4,30.15,East,99,0.0,0.0,53,0.00,,,0.00,WeatherCatV1.13B119,2013-02-13 23:36:00,
2013-02-13 15:41:00,60.4,41.7,30.15,WNW,283,3.0,5.0,50,0.00,,,0.00,WeatherCatV1.13B119,2013-02-13 23:41:00,
2013-02-13 15:46:00,60.3,43.6,30.15,West,267,2.0,4.0,54,0.00,,,0.00,WeatherCatV1.13B119,2013-02-13 23:46:00,
2013-02-13 15:51:00,60.1,41.9,30.15,West,269,5.0,5.0,51,0.00,,,0.00,WeatherCatV1.13B119,2013-02-13 23:51:00,
2013-02-13 15:56:00,59.5,41.4,30.15,West,259,4.0,5.0,51,0.00,,,0.00,WeatherCatV1.13B119,2013-02-13 23:56:00,
2013-02-13 16:01:00,59.3,41.2,30.15,WSW,253,0.0,2.0,51,0.00,,,0.00,WeatherCatV1.13B119,2013-02-14 00:01:00,
2013-02-13 16:06:00,59.1,42.9,30.15,NE,54,2.0,4.0,55,0.00,,,0.00,WeatherCatV1.13B119,2013-02-14 00:06:00,
2013-02-13 16:11:00,59.0,43.3,30.15,NNE,19,0.0,4.0,56,0.00,,,0.00,WeatherCatV1.13B119,2013-02-14 00:11:00,
2013-02-13 16:16:00,58.5,45.1,30.15,West,264,2.0,3.0,61,0.00,,,0.00,WeatherCatV1.13B119,2013-02-14 00:16:00,
2013-02-13 16:21:00,57.9,45.4,30.14,NE,50,1.0,1.0,63,0.00,,,0.00,WeatherCatV1.13B119,2013-02-14 00:21:00,
2013-02-13 16:26:00,57.4,45.7,30.15,NE,46,0.0,0.0,65,0.00,,,0.00,WeatherCatV1.13B119,2013-02-14 00:26:00,
2013-02-13 16:31:00,56.7,45.9,30.15,NE,38,0.0,0.0,67,0.00,,,0.00,WeatherCatV1.13B119,2013-02-14 00:31:00,
2013-02-13 16:36:00,56.0,46.0,30.14,NNE,30,2.0,2.0,69,0.00,,,0.00,WeatherCatV1.13B119,2013-02-14 00:36:00,
2013-02-13 16:41:00,55.3,46.1,30.15,NE,49,0.0,0.0,71,0.00,,,0.00,WeatherCatV1.13B119,2013-02-14 00:41:00,
2013-02-13 16:46:00,54.7,45.9,30.14,NE,46,0.0,0.0,72,0.00,,,0.00,WeatherCatV1.13B119,2013-02-14 00:46:00,
2013-02-13 16:51:00,54.0,45.5,30.14,NE,44,2.0,4.0,73,0.00,,,0.00,WeatherCatV1.13B119,2013-02-14 00:51:00,
2013-02-13 16:56:00,53.7,45.6,30.14,NE,44,0.0,0.0,74,0.00,,,0.00,WeatherCatV1.13B119,2013-02-14 00:56:00,
2013-02-13 17:01:00,53.0,45.3,30.14,NE,46,0.0,0.0,75,0.00,,,0.00,WeatherCatV1.13B119,2013-02-14 01:01:00,
2013-02-13 17:06:00,52.0,44.7,30.14,NE,43,2.0,2.0,76,0.00,,,0.00,WeatherCatV1.13B119,2013-02-14 01:06:00,
2013-02-13 17:11:00,51.2,43.9,30.14,NE,44,3.0,3.0,76,0.00,,,0.00,WeatherCatV1.13B119,2013-02-14 01:11:00,
2013-02-13 17:16:00,50.5,43.2,30.14,NE,35,2.0,3.0,76,0.00,,,0.00,WeatherCatV1.13B119,2013-02-14 01:16:00,
2013-02-13 17:21:00,50.0,42.4,30.14,NE,35,3.0,3.0,75,0.00,,,0.00,WeatherCatV1.13B119,2013-02-14 01:21:00,
2013-02-13 17:26:00,49.5,41.2,30.14,NNW,336,1.0,1.0,73,0.00,,,0.00,WeatherCatV1.13B119,2013-02-14 01:26:00,
2013-02-13 17:31:00,49.1,40.1,30.15,NE,47,3.0,3.0,71,0.00,,,0.00,WeatherCatV1.13B119,2013-02-14 01:31:00,
2013-02-13 17:36:00,48.8,38.7,30.14,NE,45,3.0,3.0,68,0.00,,,0.00,WeatherCatV1.13B119,2013-02-14 01:36:00,
2013-02-13 17:41:00,48.6,37.8,30.14,NE,36,3.0,4.0,66,0.00,,,0.00,WeatherCatV1.13B119,2013-02-14 01:41:00,
2013-02-13 17:46:00,48.2,35.8,30.14,NE,42,3.0,5.0,62,0.00,,,0.00,WeatherCatV1.13B119,2013-02-14 01:46:00,
2013-02-13 17:51:00,47.9,34.7,30.14,NNW,340,3.0,4.0,60,0.00,,,0.00,WeatherCatV1.13B119,2013-02-14 01:51:00,
2013-02-13 17:56:00,47.6,33.1,30.14,NE,51,2.0,2.0,57,0.00,,,0.00,WeatherCatV1.13B119,2013-02-14 01:56:00,
2013-02-13 18:01:00,47.3,31.5,30.14,NNE,24,3.0,3.0,54,0.00,,,0.00,WeatherCatV1.13B119,2013-02-14 02:01:00,
2013-02-13 18:06:00,47.1,28.4,30.14,NNE,33,3.0,4.0,48,0.00,,,0.00,WeatherCatV1.13B119,2013-02-14 02:06:00,
2013-02-13 18:11:00,47.0,26.8,30.14,North,349,1.0,2.0,45,0.00,,,0.00,WeatherCatV1.13B119,2013-02-14 02:11:00,
2013-02-13 18:16:00,46.9,26.7,30.15,NNE,33,3.0,3.0,45,0.00,,,0.00,WeatherCatV1.13B119,2013-02-14 02:16:00,
2013-02-13 18:21:00,46.7,24.3,30.15,NE,36,0.0,0.0,41,0.00,,,0.00,WeatherCatV1.13B119,2013-02-14 02:21:00,
2013-02-13 18:26:00,46.6,21.1,30.15,NE,42,0.0,1.0,36,0.00,,,0.00,WeatherCatV1.13B119,2013-02-14 02:26:00,
2013-02-13 18:31:00,46.7,24.3,30.15,SW,229,0.0,0.0,41,0.00,,,0.00,WeatherCatV1.13B119,2013-02-14 02:31:00,
2013-02-13 18:36:00,46.9,35.4,30.15,SW,229,0.0,0.0,64,0.00,,,0.00,WeatherCatV1.13B119,2013-02-14 02:36:00,
2013-02-13 18:41:00,47.1,37.5,30.15,SW,227,0.0,0.0,69,0.00,,,0.00,WeatherCatV1.13B119,2013-02-14 02:41:00,
2013-02-13 18:46:00,46.8,37.9,30.15,SW,229,0.0,0.0,71,0.00,,,0.00,WeatherCatV1.13B119,2013-02-14 02:46:00,
2013-02-13 18:51:00,46.5,36.9,30.14,SW,229,0.0,0.0,69,0.00,,,0.00,WeatherCatV1.13B119,2013-02-14 02:51:00,
2013-02-13 18:56:00,46.5,37.3,30.14,SW,236,0.0,0.0,70,0.00,,,0.00,WeatherCatV1.13B119,2013-02-14 02:56:00,
2013-02-13 19:01:00,46.4,35.7,30.14,North,0,2.0,2.0,66,0.00,,,0.00,WeatherCatV1.13B119,2013-02-14 03:01:00,
2013-02-13 19:06:00,46.1,29.9,30.13,NNE,13,0.0,2.0,53,0.00,,,0.00,WeatherCatV1.13B119,2013-02-14 03:06:00,
2013-02-13 19:11:00,45.9,29.7,30.13,NE,36,0.0,0.0,53,0.00,,,0.00,WeatherCatV1.13B119,2013-02-14 03:11:00,
2013-02-13 19:16:00,45.8,29.7,30.14,NE,36,0.0,0.0,53,0.00,,,0.00,WeatherCatV1.13B119,2013-02-14 03:16:00,
2013-02-13 19:21:00,45.9,26.3,30.14,NNW,348,1.0,2.0,46,0.00,,,0.00,WeatherCatV1.13B119,2013-02-14 03:21:00,
2013-02-13 19:26:00,45.8,25.1,30.14,NNW,340,0.0,2.0,44,0.00,,,0.00,WeatherCatV1.13B119,2013-02-14 03:26:00,
2013-02-13 19:31:00,45.6,19.5,30.14,NE,35,2.0,3.0,35,0.00,,,0.00,WeatherCatV1.13B119,2013-02-14 03:31:00,
2013-02-13 19:36:00,45.3,15.7,30.14,NE,36,3.0,3.0,30,0.00,,,0.00,WeatherCatV1.13B119,2013-02-14 03:36:00,
2013-02-13 19:41:00,45.1,6.5,30.14,North,350,3.0,3.0,20,0.00,,,0.00,WeatherCatV1.13B119,2013-02-14 03:41:00,
2013-02-13 19:46:00,45.0,0.2,30.14,West,266,0.0,0.0,15,0.00,,,0.00,WeatherCatV1.13B119,2013-02-14 03:46:00,
2013-02-13 19:51:00,45.4,4.4,30.14,West,260,0.0,0.0,18,0.00,,,0.00,WeatherCatV1.13B119,2013-02-14 03:51:00,
2013-02-13 19:56:00,45.7,23.4,30.14,West,262,0.0,0.0,41,0.00,,,0.00,WeatherCatV1.13B119,2013-02-14 03:56:00,
2013-02-13 20:01:00,45.9,25.2,30.14,West,261,0.0,0.0,44,0.00,,,0.00,WeatherCatV1.13B119,2013-02-14 04:01:00,
2013-02-13 20:06:00,45.9,26.8,30.14,West,259,0.0,0.0,47,0.00,,,0.00,WeatherCatV1.13B119,2013-02-14 04:06:00,
2013-02-13 20:11:00,46.0,26.9,30.14,WSW,250,0.0,0.0,47,0.00,,,0.00,WeatherCatV1.13B119,2013-02-14 04:11:00,
2013-02-13 20:16:00,46.1,27.0,30.14,WSW,250,0.0,0.0,47,0.00,,,0.00,WeatherCatV1.13B119,2013-02-14 04:16:00,
2013-02-13 20:21:00,46.3,29.2,30.14,WSW,252,0.0,0.0,51,0.00,,,0.00,WeatherCatV1.13B119,2013-02-14 04:21:00,
2013-02-13 20:26:00,46.1,29.9,30.14,WSW,252,0.0,0.0,53,0.00,,,0.00,WeatherCatV1.13B119,2013-02-14 04:26:00,
2013-02-13 20:31:00,46.1,28.0,30.14,WSW,252,0.0,0.0,49,0.00,,,0.00,WeatherCatV1.13B119,2013-02-14 04:31:00,
2013-02-13 20:36:00,46.3,27.2,30.14,WSW,248,0.0,0.0,47,0.00,,,0.00,WeatherCatV1.13B119,2013-02-14 04:36:00,
2013-02-13 20:41:00,46.4,29.3,30.13,WSW,253,0.0,0.0,51,0.00,,,0.00,WeatherCatV1.13B119,2013-02-14 04:41:00,
2013-02-13 20:46:00,46.6,30.4,30.13,WSW,257,0.0,0.0,53,0.00,,,0.00,WeatherCatV1.13B119,2013-02-14 04:46:00,
2013-02-13 20:51:00,46.9,32.9,30.13,West,259,0.0,0.0,58,0.00,,,0.00,WeatherCatV1.13B119,2013-02-14 04:51:00,
2013-02-13 20:56:00,47.1,35.2,30.13,WSW,256,0.0,0.0,63,0.00,,,0.00,WeatherCatV1.13B119,2013-02-14 04:56:00,
2013-02-13 21:01:00,47.4,38.1,30.13,West,261,0.0,0.0,70,0.00,,,0.00,WeatherCatV1.13B119,2013-02-14 05:01:00,
2013-02-13 21:06:00,47.5,40.3,30.13,West,271,3.0,3.0,76,0.00,,,0.00,WeatherCatV1.13B119,2013-02-14 05:06:00,
2013-02-13 21:11:00,47.9,41.0,30.13,West,268,2.0,2.0,77,0.00,,,0.00,WeatherCatV1.13B119,2013-02-14 05:11:00,
2013-02-13 21:16:00,48.2,41.3,30.13,WSW,257,0.0,0.0,77,0.00,,,0.00,WeatherCatV1.13B119,2013-02-14 05:16:00,
2013-02-13 21:21:00,48.2,41.3,30.13,WSW,250,0.0,0.0,77,0.00,,,0.00,WeatherCatV1.13B119,2013-02-14 05:21:00,
2013-02-13 21:26:00,48.0,41.1,30.13,West,268,0.0,0.0,77,0.00,,,0.00,WeatherCatV1.13B119,2013-02-14 05:26:00,
2013-02-13 21:31:00,48.0,41.1,30.13,WSW,250,0.0,0.0,77,0.00,,,0.00,WeatherCatV1.13B119,2013-02-14 05:31:00,
2013-02-13 21:36:00,48.1,41.6,30.13,West,259,0.0,0.0,78,0.00,,,0.00,WeatherCatV1.13B119,2013-02-14 05:36:00,
2013-02-13 21:41:00,49.1,40.8,30.13,West,272,0.0,0.0,73,0.00,,,0.00,WeatherCatV1.13B119,2013-02-14 05:41:00,
2013-02-13 21:46:00,49.8,40.8,30.13,West,260,0.0,0.0,71,0.00,,,0.00,WeatherCatV1.13B119,2013-02-14 05:46:00,
2013-02-13 21:51:00,50.0,40.6,30.13,West,259,0.0,0.0,70,0.00,,,0.00,WeatherCatV1.13B119,2013-02-14 05:51:00,
2013-02-13 21:56:00,50.3,40.1,30.14,West,268,0.0,0.0,68,0.00,,,0.00,WeatherCatV1.13B119,2013-02-14 05:56:00,
2013-02-13 22:01:00,50.7,39.8,30.13,West,259,0.0,0.0,66,0.00,,,0.00,WeatherCatV1.13B119,2013-02-14 06:01:00,
2013-02-13 22:06:00,51.0,39.7,30.13,WSW,246,0.0,0.0,65,0.00,,,0.00,WeatherCatV1.13B119,2013-02-14 06:06:00,
2013-02-13 22:11:00,51.0,39.7,30.13,WSW,240,0.0,0.0,65,0.00,,,0.00,WeatherCatV1.13B119,2013-02-14 06:11:00,
2013-02-13 22:16:00,51.1,39.4,30.14,WSW,254,0.0,0.0,64,0.00,,,0.00,WeatherCatV1.13B119,2013-02-14 06:16:00,
2013-02-13 22:21:00,51.7,39.1,30.13,West,272,0.0,0.0,62,0.00,,,0.00,WeatherCatV1.13B119,2013-02-14 06:21:00,
2013-02-13 22:26:00,52.1,39.1,30.13,WSW,251,0.0,0.0,61,0.00,,,0.00,WeatherCatV1.13B119,2013-02-14 06:26:00,
2013-02-13 22:31:00,52.2,39.2,30.13,WSW,249,0.0,0.0,61,0.00,,,0.00,WeatherCatV1.13B119,2013-02-14 06:31:00,
2013-02-13 22:36:00,52.2,39.2,30.13,WSW,249,0.0,0.0,61,0.00,,,0.00,WeatherCatV1.13B119,2013-02-14 06:36:00,
2013-02-13 22:41:00,52.1,39.1,30.13,WSW,249,0.0,0.0,61,0.00,,,0.00,WeatherCatV1.13B119,2013-02-14 06:41:00,
2013-02-13 22:46:00,52.3,39.7,30.13,WSW,249,0.0,0.0,62,0.00,,,0.00,WeatherCatV1.13B119,2013-02-14 06:46:00,
2013-02-13 22:51:00,51.8,39.2,30.13,WSW,249,0.0,0.0,62,0.00,,,0.00,WeatherCatV1.13B119,2013-02-14 06:51:00,
2013-02-13 22:56:00,50.9,38.8,30.13,WSW,249,0.0,0.0,63,0.00,,,0.00,WeatherCatV1.13B119,2013-02-14 06:56:00,
2013-02-13 23:01:00,49.9,38.6,30.13,WSW,249,0.0,0.0,65,0.00,,,0.00,WeatherCatV1.13B119,2013-02-14 07:01:00,
2013-02-13 23:06:00,49.7,40.3,30.13,WSW,249,0.0,0.0,70,0.00,,,0.00,WeatherCatV1.13B119,2013-02-14 07:06:00,
2013-02-13 23:11:00,50.6,41.9,30.13,NNE,24,0.0,0.0,72,0.00,,,0.00,WeatherCatV1.13B119,2013-02-14 07:11:00,
2013-02-13 23:16:00,51.6,41.8,30.13,NNE,23,0.0,0.0,69,0.00,,,0.00,WeatherCatV1.13B119,2013-02-14 07:16:00,
2013-02-13 23:21:00,51.8,41.6,30.13,NNE,23,0.0,0.0,68,0.00,,,0.00,WeatherCatV1.13B119,2013-02-14 07:21:00,
2013-02-13 23:26:00,51.2,40.2,30.13,NNE,23,0.0,0.0,66,0.00,,,0.00,WeatherCatV1.13B119,2013-02-14 07:26:00,
2013-02-13 23:31:00,50.7,40.5,30.13,NNE,23,0.0,0.0,68,0.00,,,0.00,WeatherCatV1.13B119,2013-02-14 07:31:00,
2013-02-13 23:36:00,50.3,40.5,30.13,NNE,23,0.0,0.0,69,0.00,,,0.00,WeatherCatV1.13B119,2013-02-14 07:36:00,
2013-02-13 23:41:00,49.9,40.1,30.13,NNE,23,0.0,0.0,69,0.00,,,0.00,WeatherCatV1.13B119,2013-02-14 07:41:00,
2013-02-13 23:46:00,50.1,40.7,30.13,NNE,23,0.0,0.0,70,0.00,,,0.00,WeatherCatV1.13B119,2013-02-14 07:46:00,
2013-02-13 23:51:00,50.1,40.0,30.13,NNE,23,0.0,0.0,68,0.00,,,0.00,WeatherCatV1.13B119,2013-02-14 07:51:00,
2013-02-13 23:56:00,49.8,40.0,30.13,WSW,244,0.0,0.0,69,0.00,,,0.00,WeatherCatV1.13B119,2013-02-14 07:56:00,